Lapse_Rate
5.6 5.6 5.5 5.5 5.5 5.6 5.6 5.6 5.7 5.9 6.0 6.1 6.2 6.5 6.6 6.6 6.6 6.9 6.8 7.1 7.0 7.1 7.3 7.3 7.3 7.6 7.7 7.9 7.1 6.9 7.2 7.9 8.2 7.0 8.8 9.8 9.6 9.7 9.6 8.9 8.7 8.4 8.3 8.8 8.2
5.5 5.5 5.5 5.5 5.4 5.5 5.5 5.6 5.9 6.0 6.1 6.2 6.3 6.5 6.6 6.6 6.7 6.8 6.7 7.0 7.2 7.2 7.3 7.4 7.5 6.9 6.6 7.0 7.6 7.7 7.4 8.0 8.9 8.8 9.1 9.6 9.6 9.6 9.7 9.6 9.0 8.3 8.0 8.9 8.4
5.3 5.2 5.2 5.4 5.5 5.6 5.7 5.8 5.9 6.1 6.2 6.3 6.4 6.5 6.6 6.7 6.8 6.8 7.4 7.3 7.3 7.3 7.4 7.4 6.5 6.7 6.8 7.3 8.0 8.1 8.1 8.1 8.6 9.0 9.2 9.1 9.6 9.7 9.7 9.7 9.6 9.0 8.4 9.0 8.8
5.3 5.3 5.4 5.6 5.7 6.0 6.1 6.3 6.4 6.4 6.4 6.5 6.6 6.6 6.5 6.6 6.6 6.0 6.5 6.9 7.2 7.3 7.5 7.1 6.8 7.1 7.4 7.6 8.1 8.6 8.8 8.8 8.7 8.3 8.5 9.0 9.7 9.7 9.7 9.7 9.7 9.5 8.8 8.9 8.9
5.3 5.4 5.6 5.8 6.2 6.4 6.4 6.5 6.6 6.6 6.7 6.8 6.8 6.8 6.7 6.7 6.8 6.4 6.4 6.7 6.8 6.9 7.0 6.6 6.6 7.0 7.3 7.8 8.2 8.5 8.7 8.9 8.6 8.6 8.5 8.6 9.4 9.5 9.3 9.4 9.7 9.5 9.0 8.8 8.8
5.6 5.7 6.0 6.3 6.4 6.5 6.6 6.6 6.7 6.8 6.9 7.0 7.0 7.0 6.9 6.7 6.0 6.8 6.7 6.6 6.6 6.6 6.7 6.4 6.5 6.8 7.2 7.5 7.7 8.0 8.1 8.2 8.4 8.4 8.5 8.6 8.8 9.4 9.6 9.4 9.6 9.5 9.0 8.6 8.3
6.0 6.2 6.3 6.3 6.5 6.6 6.7 6.7 6.8 6.8 6.9 7.0 7.0 6.9 6.9 6.5 6.1 6.2 6.9 6.8 6.6 6.6 6.6 6.3 6.5 6.6 6.9 7.1 7.5 7.5 7.7 7.9 8.0 8.5 8.8 9.6 9.7 9.7 9.7 9.7 9.3 9.7 9.2 8.3 8.0
6.3 6.3 6.3 6.3 6.4 6.6 6.7 6.8 6.8 6.9 6.9 7.0 7.0 7.0 6.7 6.7 6.4 6.7 6.5 5.9 6.1 5.7 5.8 6.1 6.3 6.5 6.6 6.8 6.9 7.1 7.4 7.6 8.2 9.4 9.7 9.8 9.3 9.7 9.7 9.7 9.7 9.7 9.4 8.9 7.6
6.2 6.3 6.4 6.4 6.4 6.5 6.7 6.8 6.9 6.8 6.8 6.9 6.9 6.8 6.1 6.6 6.3 6.2 6.1 6.2 5.9 5.8 5.8 6.0 6.0 6.2 6.4 6.8 7.0 7.4 7.6 8.1 9.1 9.7 9.7 9.7 9.7 9.4 9.6 9.7 9.6 9.6 9.6 9.5 8.9
6.1 6.3 6.3 6.3 6.3 6.5 6.6 6.7 6.7 6.7 6.6 6.6 6.7 6.8 6.4 6.0 6.2 6.3 6.2 6.1 6.0 6.1 6.1 6.2 6.1 6.2 6.7 6.9 7.1 7.7 8.1 8.7 8.9 9.3 9.5 9.6 9.7 9.7 9.7 9.7 9.7 9.7 9.7 9.1 9.2
6.1 6.2 6.2 6.3 6.4 6.5 6.7 6.6 6.5 6.6 6.6 6.5 6.1 6.1 5.9 6.3 6.5 5.9 6.0 6.4 6.0 5.9 6.2 6.5 6.5 7.1 7.4 7.6 7.9 8.1 8.2 8.3 8.2 8.7 8.9 9.2 9.6 9.7 9.7 9.7 9.7 9.7 9.7 9.5 9.4
6.0 6.1 6.1 6.2 6.3 6.5 6.5 6.5 6.5 6.4 6.5 6.3 6.4 6.4 6.3 6.4 6.2 6.2 6.4 6.2 6.2 6.3 6.6 6.8 7.1 7.5 7.6 7.9 7.9 8.0 8.1 8.1 8.3 8.4 9.3 9.3 9.3 9.6 9.6 9.7 9.6 9.7 9.4 9.7 9.7
6.0 6.1 6.2 6.3 6.4 6.4 6.5 6.5 6.6 6.6 6.7 5.9 5.9 6.0 6.2 6.2 6.4 6.6 6.4 6.7 6.7 6.9 7.2 7.5 8.0 8.3 8.5 8.5 8.4 8.5 8.4 8.4 8.4 8.5 8.7 9.3 8.8 9.1 9.5 9.7 9.4 9.6 9.7 9.7 9.7
6.0 6.1 6.2 6.3 6.4 6.4 6.6 6.6 6.7 6.7 6.8 6.4 6.2 6.3 6.3 6.4 6.6 6.7 6.5 6.5 6.7 7.2 7.3 7.5 7.7 8.0 8.1 8.0 8.2 8.1 8.8 8.9 8.9 8.9 8.6 9.6 9.8 9.5 9.7 9.7 9.7 9.7 9.7 9.7 9.7
6.0 6.1 6.3 6.3 6.3 6.4 6.4 6.6 6.8 6.7 7.7 7.0 6.8 6.7 6.5 6.7 6.9 6.6 6.4 6.4 6.6 6.9 6.9 7.5 7.8 7.9 7.9 8.0 8.1 7.9 8.1 8.2 8.3 8.3 8.4 8.9 9.7 9.5 9.7 9.7 9.7 9.7 9.7 9.7 9.7
5.8 6.0 6.2 6.4 6.5 6.6 6.7 6.7 6.8 6.6 7.9 7.1 7.0 7.0 7.1 7.2 7.0 6.8 6.8 6.4 6.5 6.6 7.0 7.5 7.7 8.1 8.5 8.2 7.8 7.9 8.0 8.0 8.5 9.2 9.4 9.3 9.7 9.7 9.7 9.7 9.7 9.7 9.8 9.5 9.4
5.9 6.0 6.2 6.3 6.4 6.7 6.7 6.8 6.5 7.4 7.5 7.6 7.4 7.2 7.3 7.5 7.4 7.0 7.1 7.4 7.5 7.1 7.4 7.7 9.1 9.7 9.0 8.2 8.6 9.0 9.2 9.5 9.6 9.7 9.9 9.7 9.7 9.7 9.7 9.7 9.7 9.6 9.3 9.0 9.3
6.0 6.1 6.2 6.4 6.5 6.6 6.7 6.1 6.9 8.4 7.9 7.1 7.3 7.2 7.4 7.3 7.5 7.2 7.3 7.8 8.0 7.0 7.1 7.6 8.0 8.6 8.0 8.2 8.5 9.1 9.5 9.7 9.3 9.6 9.8 9.6 9.6 9.5 9.5 9.4 9.5 10.0 9.1 9.1 9.2
6.0 6.2 6.4 6.5 6.5 6.5 6.6 6.5 7.8 7.3 7.0 7.0 7.2 7.4 8.1 7.5 7.1 7.5 7.8 7.8 7.9 7.2 7.0 7.1 7.3 7.5 8.0 8.1 8.6 9.1 9.5 9.6 9.6 9.7 9.9 9.7 9.5 9.6 9.4 9.3 9.5 9.3 9.5 9.4 9.2
5.9 5.8 6.1 5.9 6.1 6.2 5.8 6.8 7.2 6.5 6.6 6.8 7.3 7.5 7.9 8.3 7.5 8.0 8.0 8.0 7.5 6.9 6.7 7.0 7.0 7.5 7.8 8.0 8.4 9.6 9.7 9.5 9.6 9.3 9.0 8.5 8.7 7.3 8.3 8.9 9.2 7.5 8.1 7.9 7.9
5.5 5.6 5.4 5.5 5.9 6.0 6.0 7.2 6.8 6.5 6.3 6.7 7.2 7.3 7.5 7.5 7.5 7.8 8.2 8.2 7.4 6.8 6.8 6.9 7.1 7.2 7.4 8.0 8.4 9.0 8.8 8.5 8.6 8.6 8.8 8.2 9.1 8.1 8.1 7.2 8.5 8.0 7.4 6.8 7.9
5.6 5.9 5.5 5.9 5.7 6.1 6.8 6.5 6.5 6.4 6.3 6.4 6.6 6.7 7.1 7.3 7.3 7.5 7.9 8.4 6.9 6.8 6.7 6.8 6.8 7.0 7.3 7.9 8.7 9.4 8.5 8.4 8.6 9.0 8.9 8.2 8.4 8.2 8.0 7.8 8.1 8.2 8.0 5.0 7.0
5.5 5.9 5.3 5.9 6.0 6.9 7.3 6.4 6.7 6.6 6.7 6.7 6.8 6.9 6.9 7.0 7.0 7.2 7.5 7.6 7.2 7.0 6.3 6.4 6.6 6.8 7.6 8.4 9.4 9.2 9.2 9.0 8.5 8.3 8.6 6.9 6.7 8.3 7.7 8.0 7.6 7.6 7.5 6.4 7.3
5.5 5.8 6.0 5.6 6.0 6.1 6.5 6.6 6.8 6.6 6.4 6.5 6.7 6.8 6.8 6.9 7.2 7.1 7.3 7.6 7.5 7.2 6.7 6.6 6.8 7.1 7.4 7.8 8.2 8.3 8.5 9.2 9.2 8.6 8.7 7.5 8.3 8.2 7.7 8.3 7.6 6.7 7.8 6.7 6.8
5.2 5.8 5.7 6.0 6.4 5.9 6.3 6.4 6.6 7.1 6.8 6.4 6.6 6.7 6.9 7.0 7.1 7.1 7.3 7.3 7.5 7.4 6.9 6.8 6.7 6.9 7.1 7.5 7.8 8.1 8.3 8.8 9.6 9.6 9.7 9.3 8.8 7.8 7.7 7.5 7.4 6.8 6.5 6.0 7.1
5.2 4.9 5.2 5.6 5.8 5.8 6.0 6.1 6.4 6.9 7.1 7.2 6.8 7.0 7.0 7.1 6.9 6.8 6.9 7.0 6.9 6.9 6.9 7.0 6.8 6.9 6.9 7.5 8.0 8.5 9.1 9.5 9.6 9.6 9.7 9.5 7.6 6.7 7.1 6.9 6.9 7.2 6.4 6.6 7.0
4.5 4.7 4.9 5.5 5.8 6.3 6.6 6.6 6.6 6.6 6.5 6.8 6.7 6.7 6.9 7.1 6.5 6.3 6.4 6.4 6.7 6.8 7.0 7.2 7.2 7.2 7.1 7.5 8.1 8.9 7.8 8.3 8.5 8.9 8.1 8.5 7.3 6.2 6.8 6.4 6.6 6.7 7.0 6.8 6.7
Wind_Speed
24 24 24 24 23 23 23 23 24 23 22 23 23 20 16 15 18 6 11 5 6 18 4 8 14 17 14 17 17 18 14 15 6 15 18 12 8 10 3 10 5 7 11 23 23
24 23 23 24 24 24 23 23 23 22 23 22 22 20 18 14 10 19 12 11 17 18 11 15 15 14 13 18 14 15 15 22 20 22 17 20 14 14 11 6 11 15 21 24 22
26 26 25 26 26 26 25 25 25 24 22 22 22 19 15 14 11 7 5 9 14 18 15 18 12 12 15 16 17 19 17 21 24 23 21 19 19 16 14 14 6 21 21 24 23
25 26 27 27 28 28 27 26 26 24 23 21 21 18 14 6 5 7 10 11 12 13 14 14 15 14 15 17 18 19 20 19 20 21 21 20 18 19 14 16 15 20 25 23 23
27 27 28 28 29 29 28 27 27 26 23 21 18 13 7 8 17 11 9 9 11 12 14 14 15 15 16 15 19 19 19 19 17 20 20 21 18 18 16 15 18 16 23 21 20
27 27 28 29 30 30 29 29 28 27 23 21 13 5 5 14 4 14 11 9 11 14 15 15 14 16 18 19 18 21 22 22 21 22 22 22 20 20 17 18 16 14 22 20 20
25 27 27 29 31 31 29 29 27 26 23 17 9 5 11 16 1 1 8 9 13 15 17 14 15 16 18 21 20 21 23 19 21 23 24 22 18 15 15 11 17 15 16 19 19
26 27 28 30 32 33 31 30 26 23 19 10 3 7 7 9 8 5 9 12 14 15 13 13 15 17 16 18 21 22 25 21 22 24 22 13 15 12 12 15 14 17 16 16 21
27 27 28 31 33 34 34 35 26 16 7 5 5 8 10 4 8 11 12 12 13 14 16 14 14 17 17 18 18 18 19 23 23 21 17 12 11 14 18 11 11 13 8 11 17
26 26 29 32 36 35 37 34 4 5 6 8 10 8 10 3 6 7 9 9 11 7 12 13 11 14 16 14 16 19 19 22 22 22 24 21 14 12 11 18 12 12 13 15 14
28 29 32 34 37 35 18 7 3 5 13 13 6 10 0 3 5 9 0 8 10 9 13 14 14 15 19 19 22 23 23 24 23 23 22 24 22 17 15 16 20 15 17 15 13
28 30 33 36 37 38 12 7 8 6 10 8 6 8 5 4 7 9 4 6 10 11 14 14 16 19 21 18 19 20 23 24 24 22 22 22 24 21 21 16 20 17 16 16 18
29 31 34 36 37 15 5 7 7 9 7 10 10 8 3 6 7 4 4 9 8 13 15 17 17 17 16 16 19 20 20 20 24 22 22 22 24 20 23 16 20 23 19 19 14
28 30 32 38 10 9 2 8 9 5 5 9 8 4 7 9 9 2 4 5 9 12 14 12 15 13 14 16 17 20 20 21 21 20 19 20 17 16 18 19 20 9 12 18 15
28 28 28 17 11 5 9 10 9 5 4 3 7 5 4 6 9 7 3 8 11 13 11 15 15 14 15 16 17 19 21 21 21 21 23 22 14 15 15 16 14 13 17 19 13
31 27 29 2 7 8 11 10 7 5 2 6 1 2 9 13 9 4 10 11 12 9 16 16 14 16 16 8 12 17 19 19 19 17 16 21 19 17 16 15 18 16 14 4 15
34 34 17 11 5 13 10 7 6 6 3 3 3 5 9 9 8 3 8 10 10 6 12 16 14 7 4 10 14 17 18 12 15 13 15 18 17 14 16 17 9 5 15 10 4
38 39 8 8 13 11 8 8 6 1 1 6 8 9 11 9 9 3 10 12 6 2 10 9 12 16 17 16 20 14 16 11 18 16 18 21 12 11 16 16 6 4 10 10 1
39 6 6 8 11 5 7 7 5 10 6 9 12 10 6 7 4 6 9 8 8 8 8 11 15 21 18 17 19 16 14 18 17 19 18 16 20 8 25 11 17 14 17 5 5
9 9 11 6 5 7 7 11 11 6 7 9 12 1 12 5 5 3 4 7 4 8 10 14 19 18 16 18 15 18 13 14 8 10 11 14 19 7 22 23 22 27 23 15 25
4 6 6 5 5 7 9 12 4 3 6 7 11 8 10 7 6 10 6 8 10 9 11 16 12 16 18 16 19 12 10 7 6 3 7 5 9 10 14 14 21 20 23 23 15
6 6 7 4 7 7 10 7 4 9 5 5 6 9 11 11 8 11 12 5 12 11 12 11 9 13 20 20 15 9 5 3 5 9 12 8 13 12 15 15 11 16 19 25 27
5 10 6 3 7 8 6 4 6 9 9 7 7 5 8 8 7 9 10 12 7 9 9 8 9 14 13 17 7 17 15 5 8 10 13 4 7 21 13 11 12 12 5 24 9
5 5 6 6 9 11 13 12 11 7 6 12 11 12 11 11 12 11 12 10 10 3 3 4 11 15 14 18 19 19 22 20 14 5 13 12 16 7 17 7 4 10 12 10 1
4 5 6 7 9 12 12 13 14 15 10 5 7 11 13 12 12 11 14 14 13 1 9 9 14 16 20 23 23 23 25 23 20 20 19 17 3 4 11 11 5 6 6 11 7
5 6 11 11 15 13 11 14 15 16 13 13 11 15 12 11 8 14 14 12 12 15 15 14 15 18 21 21 23 24 24 24 23 18 23 10 12 7 7 13 4 8 2 9 6
8 7 7 9 13 12 11 14 13 8 7 13 12 14 14 11 11 12 15 17 18 18 16 16 13 14 19 20 21 18 17 17 25 10 21 13 14 13 11 9 9 8 10 5 5
Wind_Direction
355 352 350 347 343 340 338 337 333 331 326 320 319 319 318 315 299 236 268 268 174 170 221 216 220 234 244 263 265 270 281 283 61 7 286 2 23 346 103 148 100 81 69 138 142
352 348 346 344 341 337 334 332 327 325 320 316 313 317 321 326 285 273 241 142 151 160 196 204 216 226 248 254 260 257 267 284 303 203 296 338 346 329 324 316 133 109 117 130 149
350 345 342 341 338 334 332 329 323 321 316 313 312 315 319 313 279 245 127 145 170 175 222 226 239 233 252 263 263 261 267 284 300 311 315 308 309 296 332 320 163 137 141 147 157
343 342 339 337 334 331 327 324 318 315 313 310 311 315 319 251 287 96 158 181 181 201 234 235 240 252 249 265 265 259 261 269 292 305 303 297 296 293 305 298 315 147 151 156 163
340 338 335 332 329 325 322 318 315 314 311 307 310 312 293 232 255 132 154 166 172 202 225 236 241 247 256 270 282 285 290 293 288 297 303 297 285 281 277 278 295 121 146 159 171
338 334 331 328 325 319 318 313 314 311 306 304 304 290 240 256 92 144 175 177 187 205 238 251 249 258 277 282 288 290 287 288 288 284 280 272 273 273 265 267 257 154 153 164 177
335 330 327 323 319 317 315 312 311 303 299 295 288 236 259 249 284 240 192 216 228 212 241 248 256 276 280 280 277 289 291 292 288 281 274 269 264 276 286 259 262 250 172 166 176
329 329 325 324 319 317 314 313 305 299 290 281 245 227 253 42 331 261 254 221 207 232 252 294 299 290 281 283 284 280 278 279 279 275 272 239 268 271 270 277 281 238 180 176 175
328 328 323 321 321 320 320 312 301 289 245 242 230 223 254 143 216 217 219 229 249 245 246 255 259 263 269 265 270 262 263 264 264 263 263 246 254 284 276 266 283 286 275 200 185
328 327 324 323 322 324 325 300 283 276 215 232 260 253 252 258 345 309 266 251 266 227 260 237 245 255 250 249 261 275 285 292 299 304 310 301 263 250 269 291 271 263 257 235 229
332 331 328 326 324 325 340 331 232 191 230 279 289 275 274 295 218 212 181 213 241 249 261 235 237 250 243 251 261 271 275 281 286 287 287 290 292 274 275 264 277 235 244 251 240
331 330 328 326 323 319 301 6 30 325 300 264 261 253 230 287 269 191 224 219 187 240 246 240 249 254 253 263 270 277 282 284 285 288 282 274 275 276 275 269 269 278 264 253 234
332 329 326 324 320 300 320 12 326 326 263 242 227 275 236 231 270 260 214 274 267 267 259 259 274 291 290 281 281 277 279 283 288 284 276 279 278 274 270 264 253 249 247 260 243
329 325 325 326 303 338 23 350 336 344 275 140 203 196 231 231 262 132 282 300 284 285 289 293 285 286 296 290 289 285 295 302 292 289 284 285 283 271 279 262 256 205 240 243 235
320 320 323 323 311 327 343 321 328 271 279 154 131 92 267 244 336 184 156 278 263 288 309 286 305 300 293 300 311 297 305 300 298 289 288 282 273 278 262 276 267 259 250 247 259
319 322 330 197 222 292 325 319 282 236 234 138 301 229 256 207 232 281 263 187 261 264 270 262 245 253 290 257 279 278 277 277 277 274 268 273 268 272 271 282 277 247 260 61 342
319 316 314 308 308 334 318 280 254 250 172 112 26 313 309 278 310 195 297 281 238 324 326 318 286 338 10 309 311 324 316 300 291 276 281 271 264 264 270 274 303 117 76 355 27
319 311 258 244 297 299 293 271 265 3 16 66 285 304 260 16 281 299 283 263 170 325 333 344 319 4 347 319 298 294 290 285 289 287 291 297 296 267 282 327 231 124 122 280 268
315 279 247 228 230 285 280 251 325 15 19 349 308 264 232 152 263 296 271 303 19 31 353 310 310 320 304 311 302 316 294 314 303 287 280 279 289 75 3 11 355 347 320 133 78
319 291 255 131 233 269 268 261 303 30 343 308 296 321 303 353 312 286 307 68 316 41 341 314 305 303 313 327 297 277 295 305 303 323 324 316 314 41 16 354 3 13 346 351 343
270 272 111 228 242 256 258 288 347 56 345 307 308 304 288 300 313 303 301 356 49 357 332 312 320 319 314 305 320 347 2 1 308 298 312 251 285 62 20 358 341 340 11 335 305
295 281 132 264 257 241 257 355 12 294 217 268 276 283 290 301 300 302 296 336 38 347 317 357 311 307 315 298 286 342 57 18 298 285 288 296 286 22 18 359 342 343 6 357 274
292 292 253 236 265 279 266 252 269 285 270 269 274 269 291 299 287 277 310 337 331 313 40 341 311 305 311 319 158 342 313 249 212 277 288 109 275 286 3 26 9 326 42 289 337
283 295 194 204 252 280 292 302 283 199 268 284 289 302 297 274 268 272 283 285 290 311 137 309 276 301 298 305 308 305 300 291 261 270 266 214 236 296 335 282 29 350 245 264 89
248 303 1 297 329 342 330 316 303 296 202 250 280 268 262 277 296 299 292 304 310 113 318 316 287 296 297 301 299 292 287 288 292 288 281 298 26 51 313 282 255 276 321 291 47
296 343 340 303 296 275 276 267 276 281 278 288 275 275 283 305 288 300 314 315 312 310 298 289 289 284 284 282 278 278 277 273 269 279 271 345 77 251 257 290 298 21 63 59 11
333 324 277 287 288 278 266 276 292 289 319 297 286 299 295 307 344 324 303 291 281 275 274 270 274 293 289 293 288 281 9 357 352 1 1 344 47 39 13 7 9 6 353 42 14